Satellite: NANOSALD
Catalog number: 37361
Epoch time:      11155.31761303
Element set:    0224
Inclination:      071.9451 deg
RA of node:       063.3952 deg
Eccentricity:    0.0023917
Arg of perigee:   165.4346 deg
Mean anomaly:     194.7968 deg
Mean motion:   14.97151310 rev/day
Decay rate:    1.43778e-03 rev/day^2
Epoch rev:           02019
Checksum:              295

Satellite: FO-70
Catalog number: 37380
Epoch time:      11159.19513046
Element set:    0183
Inclination:      071.9748 deg
RA of node:       059.1921 deg
Eccentricity:    0.0019021
Arg of perigee:   292.8241 deg
Mean anomaly:     067.0911 deg
Mean motion:   14.76361184 rev/day
Decay rate:       3.61e-06 rev/day^2
Epoch rev:           02953
Checksum:              294

/EX
SB KEPS @ AMSAT  $ORB11159.W
Orbital Elements  11159.WEATHER

HR AMSAT ORBITAL ELEMENTS FOR WEATHER SATELLITES
FROM WA5QGD FORT WORTH,TX June 8, 2011
Send Subscribe/unsubscribe to KEPS at http://www.amsat.org/mailman/listinfo/kep
BID: ORB11159.W
TO ALL RADIO AMATEURS BT

Satellite: NOAA-10
Catalog number: 16969
Epoch time:      11159.51814692
Element set:     526
Inclination:      098.6179 deg
RA of node:       189.4227 deg
Eccentricity:    0.0011322
Arg of perigee:   250.4932 deg
Mean anomaly:     109.5036 deg
Mean motion:   14.27464356 rev/day
Decay rate:       1.17e-06 rev/day^2
Epoch rev:           28641
Checksum:              311

Satellite: NOAA-11
Catalog number: 19531
Epoch time:      11159.29036984
Element set:     527
Inclination:      098.7512 deg
RA of node:       246.9215 deg
Eccentricity:    0.0010882
Arg of perigee:   209.9895 deg
Mean anomaly:     150.0670 deg
Mean motion:   14.14918385 rev/day
Decay rate:       2.52e-06 rev/day^2
Epoch rev:           17149
Checksum:              319

Satellite: NOAA-12
Catalog number: 21263
Epoch time:      11159.66502639
Element set:      24
Inclination:      098.7511 deg
RA of node:       177.5243 deg
Eccentricity:    0.0011685
Arg of perigee:   208.1722 deg
Mean anomaly:     151.8826 deg
Mean motion:   14.25716465 rev/day
Decay rate:       1.40e-06 rev/day^2
Epoch rev:            4319
Checksum:              284

Satellite: MET-3/5
Catalog number: 21655
Epoch time:      11158.86574964
Element set:     129
Inclination:      082.5583 deg
RA of node:       057.3624 deg
Eccentricity:    0.0013335
Arg of perigee:   175.0617 deg
Mean anomaly:     185.0634 deg
Mean motion:   13.17026745 rev/day
Decay rate:        5.1e-07 rev/day^2
Epoch rev:           95249
Checksum:              313

Satellite: MET-2/21
Catalog number: 22782
Epoch time:      11159.50661006
Element set:     116
Inclination:      082.5472 deg
RA of node:       329.7649 deg
Eccentricity:    0.0023681
Arg of perigee:   120.9671 deg
Mean anomaly:     239.3819 deg
Mean motion:   13.83658416 rev/day
Decay rate:        2.0e-07 rev/day^2
Epoch rev:           89735
Checksum:              314

Satellite: OKEAN-4
Catalog number: 23317
Epoch time:      11159.79827204
Element set:     577
Inclination:      082.5405 deg
RA of node:       020.9741 deg
Eccentricity:    0.0022789
Arg of perigee:   142.4661 deg
Mean anomaly:     217.8147 deg
Mean motion:   14.83081239 rev/day
Decay rate:       5.98e-06 rev/day^2
Epoch rev:           89930
Checksum:              324

Satellite: NOAA-14
Catalog number: 23455
Epoch time:      11159.68483272
Element set:     510
Inclination:      098.8518 deg
RA of node:       242.4046 deg
Eccentricity:    0.0008814
Arg of perigee:   308.6873 deg
Mean anomaly:     051.3511 deg
Mean motion:   14.13822124 rev/day
Decay rate:       1.25e-06 rev/day^2
Epoch rev:           84787
Checksum:              300

Satellite: NOAA-15
Catalog number: 25338
Epoch time:      11159.52819077
Element set:     844
Inclination:      098.6535 deg
RA of node:       145.7891 deg
Eccentricity:    0.0011597
Arg of perigee:   114.9330 deg
Mean anomaly:     245.3056 deg
Mean motion:   14.24920430 rev/day
Decay rate:        5.0e-07 rev/day^2
Epoch rev:           67949
Checksum:              319

Satellite: RESURS
Catalog number: 25394
Epoch time:      11159.88775095
Element set:     815
Inclination:      098.3007 deg
RA of node:       163.3681 deg
Eccentricity:    0.0000353
Arg of perigee:   273.7193 deg
Mean anomaly:     086.3947 deg
Mean motion:   14.24234527 rev/day
Decay rate:        3.0e-08 rev/day^2
Epoch rev:           67112
Checksum:              303

Satellite: FENGYUN1
Catalog number: 25730
Epoch time:      11159.78974543
Element set:     344
Inclination:      098.8161 deg
RA of node:       121.1714 deg
Eccentricity:    0.0024914
Arg of perigee:   340.8057 deg
Mean anomaly:     019.2166 deg
Mean motion:   14.08623752 rev/day
Decay rate:       7.20e-06 rev/day^2
Epoch rev:           62188
Checksum:              296

Satellite: OKEAN-0
Catalog number: 25860
Epoch time:      11158.92827278
Element set:    0348
Inclination:      097.8844 deg
RA of node:       125.6294 deg
Eccentricity:    0.0001769
Arg of perigee:   049.5282 deg
Mean anomaly:     310.6080 deg
Mean motion:   14.73789758 rev/day
Decay rate:       2.70e-06 rev/day^2
Epoch rev:           63929
Checksum:              344

